Theta_e
313 313 313 314 313 313 312 312 312 312 312 312 311 311 311 310 310 312 315 318 320 323 321 320 319 320 315 308 310 322 326 326 326 324 317 312 307 305 301 302 303 301 303 305 306 306 306
313 313 314 313 313 313 313 313 313 312 312 312 311 311 310 310 310 312 313 315 317 322 321 320 320 320 310 301 319 318 318 319 320 321 318 315 309 309 306 303 302 305 304 304 305 305 306
314 314 313 313 313 313 313 313 312 311 311 311 311 311 310 309 310 310 312 314 316 318 321 320 320 315 306 305 315 318 317 316 320 321 315 317 316 310 309 303 308 305 300 303 304 304 303
315 313 313 314 313 313 312 312 312 311 310 311 310 310 310 309 308 309 311 313 314 314 321 320 320 311 302 314 315 311 314 316 319 322 320 320 317 310 306 307 304 300 300 293 301 303 304
312 314 312 312 311 311 312 311 310 310 310 309 309 309 309 308 309 309 310 312 313 313 319 320 313 308 299 312 306 311 312 311 316 318 320 319 315 307 305 299 295 296 289 292 296 303 302
314 311 311 311 311 310 311 310 309 309 309 309 308 308 308 308 308 308 309 310 311 312 317 315 311 301 305 303 307 309 311 313 311 312 311 310 306 299 298 296 287 291 291 293 293 298 298
311 311 310 310 310 309 309 309 309 308 308 308 308 307 307 307 308 308 307 305 301 303 307 301 301 301 302 309 311 307 309 310 309 307 298 304 297 292 295 297 298 296 293 291 295 299 295
310 310 310 310 309 309 309 308 308 308 307 307 307 307 307 307 307 307 305 297 298 303 296 305 305 305 307 308 301 304 309 303 301 296 299 296 290 297 299 298 296 294 292 291 295 298 294
309 309 310 310 309 308 308 308 307 307 307 307 307 306 306 306 307 304 301 300 304 302 296 299 303 302 303 306 301 301 305 303 298 295 295 292 295 299 297 295 292 292 290 290 290 294 294
309 309 310 309 308 308 307 307 307 307 306 306 306 307 306 306 300 302 298 306 305 304 287 292 296 301 303 305 298 306 307 303 299 294 296 294 298 295 294 293 293 288 294 293 292 288 282
309 309 309 308 308 307 307 306 306 306 306 306 307 307 308 306 300 297 302 307 305 301 278 293 295 307 304 299 300 300 307 302 295 295 295 292 294 293 291 292 295 290 295 292 291 286 284
308 308 308 308 307 307 306 306 306 306 305 306 307 308 309 305 303 303 307 307 301 284 277 289 294 295 295 298 298 300 300 304 302 296 296 295 297 295 294 296 295 295 291 290 289 286 276
307 308 308 307 307 306 306 306 306 305 306 307 307 309 307 306 298 307 307 300 283 278 290 286 289 293 292 292 294 295 294 292 290 285 286 291 291 295 296 291 294 293 288 277 275 277 274
306 308 308 307 306 306 306 306 305 304 306 307 307 308 307 306 308 307 301 289 278 287 287 292 292 292 288 291 292 292 291 289 294 291 288 283 281 291 294 291 289 289 288 278 273 274 277
306 307 307 307 306 306 305 306 304 304 306 308 307 303 303 306 308 305 295 282 283 288 291 289 291 287 287 290 291 291 290 289 292 293 286 283 285 294 295 295 294 288 284 288 282 282 274
306 307 307 306 306 305 306 306 305 305 307 307 301 299 300 308 308 301 290 285 286 294 294 292 285 289 284 287 288 288 288 292 291 294 295 291 283 291 294 295 294 290 291 281 282 269 272
307 306 306 306 306 305 305 305 305 306 306 308 299 292 301 307 306 295 285 285 291 296 296 292 289 288 288 287 289 287 288 293 294 293 295 292 288 286 289 287 286 287 286 286 286 282 273
306 305 306 305 305 304 304 305 305 306 307 304 295 286 301 306 291 291 288 288 296 296 299 296 295 292 289 289 288 288 288 292 296 296 290 293 289 282 284 291 293 291 287 286 280 276 280
306 305 306 305 305 304 304 305 305 305 308 301 291 291 303 301 286 288 289 293 296 295 296 295 293 295 293 290 286 291 292 296 297 295 292 293 287 278 280 287 290 287 289 289 288 286 280
305 305 305 304 304 305 304 304 305 305 307 304 294 287 294 296 297 290 288 291 292 299 297 297 295 296 293 290 294 290 291 295 296 296 299 296 290 282 277 282 287 283 287 289 287 282 282
305 305 304 304 304 304 304 304 305 306 308 303 294 291 294 290 293 291 294 294 291 291 297 298 295 295 292 289 291 290 293 292 295 297 295 292 285 284 287 288 288 287 287 288 286 287 283
304 304 303 303 303 303 303 304 305 305 307 299 292 291 293 294 296 293 294 292 292 294 295 293 293 295 295 291 292 290 292 292 291 293 291 293 282 287 284 288 288 285 288 288 289 290 289
304 303 303 303 304 303 303 305 304 305 304 296 298 298 294 294 294 292 293 293 293 296 297 298 296 294 293 295 298 298 297 296 295 292 291 291 288 285 281 288 286 284 288 291 292 293 292
303 303 303 302 302 302 303 302 302 303 304 299 299 297 293 291 292 293 295 295 294 295 294 297 298 296 299 303 301 300 297 297 296 293 295 290 288 287 282 284 277 291 296 295 292 295 296
303 303 302 302 301 301 301 301 301 302 303 298 300 296 293 290 294 294 295 295 295 297 296 297 298 301 303 299 294 291 291 292 293 295 294 294 290 286 283 282 286 291 295 293 292 291 296
303 303 302 302 301 301 301 301 301 302 301 298 300 301 295 291 293 298 294 296 293 292 294 297 301 303 301 296 291 283 282 288 287 289 295 294 293 288 285 281 278 291 295 298 296 288 295
304 302 302 302 301 301 300 300 301 301 301 299 299 300 295 292 299 298 294 294 297 295 294 295 298 297 300 293 288 286 284 290 284 287 286 288 288 284 284 283 285 293 295 298 286 287 295
303 302 302 301 301 301 301 300 300 300 300 298 297 300 294 291 294 300 303 297 297 297 293 297 295 296 294 290 289 288 286 290 287 289 289 287 285 284 286 283 278 295 295 290 294 297 296
303 301 301 301 301 301 301 301 300 300 300 300 294 300 299 291 293 300 302 306 304 303 301 298 298 296 297 292 290 291 289 289 289 285 292 286 291 290 288 287 296 297 297 298 297 295 296
Wind_Speed
19 18 19 19 21 21 22 20 20 20 21 21 21 22 23 21 21 22 21 20 19 15 15 11 8 7 3 8 7 6 6 5 10 11 15 12 12 10 11 8 11 12 15 11 9 9 7
19 20 20 20 22 21 22 22 22 21 22 22 22 22 21 22 20 20 21 21 19 16 15 12 9 5 5 12 5 8 7 9 12 15 14 11 7 8 5 13 8 5 9 12 13 6 8
19 22 23 22 23 21 23 22 22 21 23 23 24 23 21 20 22 22 23 21 18 24 15 13 11 7 10 12 0 4 4 4 6 15 13 11 3 3 5 4 7 5 10 11 12 11 9
20 21 23 24 25 24 25 23 24 22 21 22 21 24 23 20 22 21 23 20 16 22 15 15 12 10 7 2 0 4 6 7 6 6 16 7 5 3 2 4 1 4 10 9 10 19 13
22 23 25 26 27 27 26 26 23 20 21 21 20 21 23 21 21 19 19 18 17 21 17 17 7 8 8 6 6 9 6 9 5 4 8 7 5 3 2 1 4 8 7 10 9 5 4
21 24 26 26 26 27 27 25 24 23 23 22 20 19 20 20 18 16 15 19 15 15 7 5 7 8 8 9 8 11 7 6 8 8 8 7 4 5 3 6 6 6 9 8 8 5 3
24 25 26 26 26 27 26 26 24 23 23 21 19 19 20 18 17 15 11 7 2 6 8 5 13 2 15 11 9 9 11 10 8 9 6 9 6 8 13 13 13 12 7 10 8 6 6
24 24 25 26 28 27 27 26 25 23 23 21 20 20 19 14 17 15 9 5 4 5 5 16 16 4 12 11 10 12 12 9 7 10 6 5 8 10 8 6 5 6 8 10 10 10 7
25 26 26 27 26 27 26 25 24 23 22 20 20 21 13 17 16 12 9 12 9 7 4 8 10 12 11 6 9 15 15 10 10 9 8 6 1 11 11 6 4 7 7 8 11 11 11
24 27 26 26 25 26 24 24 23 22 21 22 20 20 14 13 12 5 7 4 11 6 3 11 10 8 9 6 6 13 10 6 5 13 8 7 6 3 8 9 6 5 2 5 8 7 4
24 26 25 25 25 25 24 24 24 23 23 21 21 23 20 10 4 6 7 9 10 4 6 13 8 9 10 6 14 11 11 4 8 8 6 5 6 6 4 5 6 3 6 5 5 6 8
26 25 25 25 25 24 24 23 23 24 22 21 24 26 26 11 6 9 6 5 3 0 3 5 6 12 14 12 5 11 8 3 3 2 9 3 5 2 6 5 4 6 2 3 4 3 5
25 24 25 24 23 25 23 23 25 23 22 23 25 28 21 5 3 9 10 3 1 3 7 7 9 14 16 12 8 13 10 7 6 6 4 6 6 3 3 4 3 5 1 1 2 3 8
24 24 25 24 23 23 24 24 25 23 24 25 26 26 8 1 3 12 4 3 5 8 3 7 13 15 9 15 7 12 11 9 11 6 6 6 5 14 10 8 5 8 5 4 6 3 4
24 25 25 24 24 23 24 24 26 23 24 25 24 7 3 2 7 5 2 2 3 6 10 11 17 7 10 12 8 9 9 7 10 10 6 5 3 10 12 5 9 5 8 2 6 6 3
24 25 24 24 24 23 24 24 26 24 25 28 4 4 3 4 6 3 1 2 6 6 16 16 6 5 9 15 8 10 12 12 10 15 10 2 1 2 7 3 6 7 5 3 1 3 7
24 24 24 23 23 22 24 25 26 28 30 27 2 1 2 3 2 1 2 3 3 18 9 2 10 8 9 14 6 8 11 3 16 12 13 3 2 3 5 8 9 5 6 3 3 4 5
23 24 23 23 22 23 24 25 27 27 31 5 3 3 5 4 1 2 2 3 7 7 2 5 4 10 11 14 6 9 9 7 12 9 11 5 2 3 10 9 13 12 8 13 5 7 6
22 23 23 22 21 22 24 26 28 29 26 2 3 1 1 2 1 1 3 3 5 5 5 3 4 5 15 12 7 9 7 5 3 5 11 8 3 3 3 3 8 7 7 12 16 11 17
21 23 23 22 21 21 23 25 27 30 27 3 1 2 2 2 4 3 3 6 4 5 10 8 7 7 13 7 1 7 7 1 5 4 8 8 3 5 4 3 4 3 6 9 10 9 13
21 22 22 22 22 22 23 24 26 28 27 4 3 3 4 1 4 3 6 4 6 4 4 5 3 5 9 4 5 6 8 8 4 5 4 1 3 4 9 13 13 13 17 17 17 18 17
19 21 21 21 21 22 22 23 24 26 28 2 2 3 4 3 5 6 3 3 4 7 7 3 5 6 3 5 7 6 7 7 6 7 6 4 3 3 11 15 16 16 17 17 18 20 19
17 18 19 20 20 21 21 20 23 24 19 3 3 2 2 3 1 5 3 6 3 3 5 7 5 4 5 9 7 4 4 4 4 7 8 4 2 2 5 7 10 8 8 6 8 12 12
16 16 17 19 19 20 21 21 22 22 21 3 1 2 3 2 4 2 2 2 4 4 6 5 4 4 1 4 4 2 4 3 4 4 6 5 4 2 5 8 2 3 9 8 9 15 12
16 15 16 17 17 18 18 19 19 20 22 5 3 3 3 4 2 1 3 3 5 4 6 5 4 3 2 3 2 3 3 3 6 10 11 7 4 2 3 3 11 2 5 2 3 6 5
15 15 15 16 16 16 16 17 17 17 18 6 1 3 2 4 2 10 4 5 5 4 3 4 3 4 2 1 2 1 1 3 4 3 3 10 6 3 1 4 3 3 3 3 4 5 2
15 15 14 14 15 16 16 15 16 16 16 7 1 3 3 3 4 8 2 5 2 1 3 3 3 2 3 1 1 1 2 3 2 5 6 3 3 7 5 4 7 6 2 4 2 6 6
15 15 14 14 14 15 15 15 15 15 15 8 3 3 2 4 8 6 8 3 2 1 3 3 2 1 1 2 2 1 1 3 3 2 6 8 7 5 4 4 7 0 5 2 4 5 5
15 15 15 15 15 15 15 15 14 13 13 11 3 1 0 4 6 6 9 10 3 3 2 3 1 2 2 3 1 1 2 4 3 4 1 3 3 3 7 7 6 3 7 4 2 3 5
Wind_Direction
346 343 337 336 334 330 326 326 328 327 326 323 325 326 324 326 318 320 318 323 313 260 230 221 228 249 244 219 259 141 113 150 211 214 216 213 205 208 227 228 235 230 246 259 256 276 306
334 330 327 331 330 322 322 329 323 319 320 319 318 318 320 323 315 319 316 315 322 307 225 212 203 229 232 240 134 154 176 174 212 200 217 229 209 228 256 243 223 195 262 258 272 257 256
334 336 335 334 322 319 320 323 316 314 319 313 316 318 320 318 316 314 316 305 312 321 212 209 193 213 230 229 270 154 214 227 218 195 206 221 87 248 11 311 315 333 300 276 256 248 241
333 337 330 327 328 326 322 326 323 321 316 315 311 312 314 315 311 309 310 301 311 309 231 198 189 219 244 145 33 187 212 203 239 260 204 179 93 83 13 31 94 253 245 261 252 217 223
335 335 335 333 332 326 331 332 329 321 315 314 312 311 309 316 309 302 308 305 306 302 277 174 172 225 232 145 187 205 219 191 160 141 139 159 151 129 80 173 235 212 267 220 255 169 178
334 338 339 337 332 332 334 331 326 324 318 318 315 310 308 313 314 308 325 312 279 283 176 168 272 187 215 203 156 178 192 199 161 156 136 162 130 162 172 185 201 223 211 254 288 142 165
346 343 335 332 334 336 334 330 329 324 323 321 316 313 313 311 320 318 328 319 278 185 199 187 168 242 144 100 129 163 185 161 185 178 183 197 199 191 194 200 235 280 301 307 311 331 321
339 333 326 340 336 336 333 332 330 330 325 325 323 321 311 301 316 308 308 251 248 16 186 242 164 152 131 155 137 170 179 140 177 188 188 162 240 218 242 280 304 266 281 283 286 285 304
337 338 340 336 335 336 336 334 335 332 326 327 318 312 324 312 318 297 242 233 99 347 255 187 197 172 152 189 140 159 183 140 174 203 159 188 74 219 241 236 231 267 264 284 290 306 315
339 338 343 340 342 340 338 338 338 334 327 319 330 328 332 320 308 309 282 215 108 233 184 160 180 153 156 203 116 154 199 160 179 201 183 237 251 213 198 224 201 252 331 326 335 341 269
337 342 343 343 341 341 341 340 337 335 331 330 327 320 310 255 250 273 317 121 117 236 157 144 148 139 163 204 119 164 205 74 179 187 147 208 221 176 218 214 205 234 68 7 346 320 342
338 347 343 344 340 343 340 341 337 329 331 331 325 317 308 284 215 238 229 118 90 226 158 121 133 169 156 149 73 141 173 42 342 213 196 146 13 261 204 204 264 63 86 221 249 264 257
339 346 342 343 343 340 344 344 334 336 332 331 328 317 316 277 223 172 135 189 165 251 171 124 146 160 162 153 119 152 163 172 160 133 190 246 206 155 280 172 164 141 129 309 239 202 236
341 347 344 345 346 342 344 343 339 336 334 332 330 320 310 295 227 121 119 81 240 109 144 179 139 142 166 153 137 166 164 187 226 235 125 186 213 179 184 217 153 192 186 209 268 234 301
344 343 345 346 346 344 346 341 346 339 330 329 329 331 342 50 133 127 175 163 277 130 133 126 129 119 130 186 133 156 181 191 204 224 211 161 257 143 156 189 219 152 206 276 309 261 271
345 342 351 347 345 350 344 343 346 339 334 331 322 334 359 84 131 66 303 20 299 120 114 148 102 177 154 183 146 171 180 195 208 195 234 28 191 155 133 191 220 187 163 81 189 257 262
344 345 354 350 348 349 346 349 348 344 339 329 88 72 333 332 165 270 1 322 251 126 159 302 134 139 142 169 158 183 175 187 195 190 207 150 257 88 74 206 191 196 233 226 341 227 233
346 349 352 353 351 349 351 352 349 348 337 15 35 74 269 327 13 311 79 252 124 56 344 67 128 133 150 153 152 178 190 265 175 156 188 175 93 223 217 230 207 207 207 216 221 237 230
346 347 354 354 353 352 354 355 352 348 353 329 53 48 305 329 191 105 292 228 69 59 25 63 65 106 138 153 138 213 114 87 107 189 166 150 197 266 284 195 221 214 225 219 234 267 248
346 347 355 355 354 356 358 359 353 352 357 8 118 72 183 219 235 47 330 64 78 349 47 61 107 120 145 164 127 162 104 121 146 148 55 150 183 212 221 149 110 271 264 257 257 256 267
349 350 356 357 359 0 1 2 359 353 353 340 4 23 9 13 149 158 289 99 62 85 45 18 80 136 139 150 105 146 131 122 166 137 144 222 245 271 263 276 282 270 267 261 249 253 255
351 352 356 356 358 358 0 3 5 1 347 70 41 340 323 295 135 159 58 14 48 58 5 27 102 93 18 83 54 164 165 173 166 166 190 177 268 330 285 259 251 256 260 258 262 263 262
351 353 353 353 358 359 360 6 9 5 4 360 346 319 300 322 239 190 152 175 179 150 40 26 44 108 59 42 36 7 16 38 68 154 180 147 181 259 264 334 311 264 251 237 258 259 261
344 350 351 352 358 358 2 5 9 7 14 328 339 287 305 176 254 118 114 112 151 50 97 64 11 23 22 336 297 222 179 194 232 171 156 167 161 214 289 313 282 194 182 200 244 275 271
335 344 345 350 353 356 359 359 4 7 9 358 323 338 335 296 275 165 189 157 104 100 84 90 59 58 354 293 277 221 166 189 226 211 193 172 154 242 272 283 267 333 304 188 236 294 4
330 337 337 345 345 350 353 356 357 7 5 356 322 316 312 304 269 306 197 168 146 163 145 128 87 358 294 283 277 247 238 261 151 130 104 187 188 193 334 295 283 231 126 138 161 259 326
326 325 329 336 335 339 345 352 354 357 360 355 286 359 286 288 280 337 197 204 82 204 78 91 134 137 336 175 315 245 266 343 252 179 173 173 173 228 245 262 279 278 101 125 279 277 344
321 321 324 325 326 328 333 339 351 353 354 358 290 89 5 310 288 293 310 296 115 237 171 127 135 176 96 156 225 148 253 284 291 301 188 174 176 196 179 229 275 170 334 326 265 311 329
317 318 321 319 321 321 322 324 335 347 345 355 319 351 270 235 279 319 283 285 351 357 126 168 52 131 89 92 21 343 301 329 5 282 25 265 231 173 180 213 249 251 208 239 107 286 309